GEFSSE_500_meanwind_198.txt.gz
Wind_Speed
10 10 10 11 12 12 12 12 12 12 12 12 12 12 12 11 12 11 11 11 11 10 10 10 10 10 10 10 10 10 10 10 9 9 9 9 9 9 9 9 9 8 8
9 9 10 11 11 12 12 12 11 11 11 12 12 12 12 11 11 11 11 11 11 10 10 10 9 9 10 10 10 9 10 10 9 9 9 9 9 9 9 9 9 9 8
9 9 10 11 11 12 12 12 11 11 12 12 12 12 11 11 11 11 11 11 11 10 10 9 9 8 9 9 9 9 9 10 9 9 9 9 9 9 8 8 8 8 8
8 9 10 11 11 12 12 12 12 12 12 12 11 12 11 11 11 11 10 10 10 10 9 9 8 8 8 9 9 8 9 9 9 9 9 10 9 9 8 8 8 8 8
8 9 10 10 11 11 11 11 11 11 11 11 11 11 11 11 10 10 10 10 10 10 9 8 8 8 8 8 8 8 8 9 8 9 9 9 9 9 8 8 8 8 8
9 9 10 10 10 11 11 11 11 11 11 11 11 11 11 10 10 10 10 9 9 9 8 8 7 7 7 7 7 7 8 8 8 8 8 8 8 8 8 8 8 8 8
9 10 10 10 10 10 10 10 10 10 10 10 10 10 10 9 9 9 9 9 9 9 8 8 8 8 8 8 7 7 7 7 8 8 8 8 8 8 7 7 7 7 7
9 9 10 10 10 9 9 9 9 9 9 9 9 9 9 9 9 9 9 8 8 9 8 8 8 8 8 8 8 8 8 7 7 7 7 7 7 7 6 6 6 6 6
10 10 9 9 8 8 8 8 7 7 8 8 8 8 8 9 8 9 8 8 8 8 8 8 8 8 8 8 8 8 8 7 7 7 7 7 6 6 5 5 5 5 5
9 9 8 8 7 7 7 6 7 7 7 7 8 7 8 7 8 8 7 7 7 8 8 8 8 8 8 8 8 7 7 7 7 7 6 6 6 5 5 5 5 5 4
9 9 8 7 6 7 6 6 6 6 6 7 7 7 7 7 7 7 6 6 7 7 7 8 7 8 8 7 7 7 6 6 7 7 7 6 6 5 4 4 4 4 4
9 8 7 6 6 6 6 6 6 6 6 6 6 6 6 6 6 6 6 6 6 6 6 7 7 7 7 7 6 6 6 6 6 6 6 6 5 4 4 4 3 3 3
10 8 7 6 5 5 6 5 5 5 5 5 5 5 4 4 5 5 5 5 6 6 6 6 6 6 6 6 6 5 5 5 5 5 5 5 4 4 3 3 3 2 2
11 10 8 7 5 6 5 5 5 5 4 4 4 4 4 4 4 4 5 5 5 5 5 5 5 5 5 6 5 5 4 4 4 4 4 4 3 3 3 2 2 1 1
11 10 8 7 6 6 5 5 5 5 3 3 3 3 4 4 4 4 4 4 4 4 4 4 4 4 4 4 4 4 3 3 3 2 2 2 2 2 2 2 1 1 1
11 10 9 8 6 6 5 4 4 4 4 4 3 3 3 3 2 2 3 3 3 4 3 3 3 3 3 3 2 2 2 2 1 1 1 1 1 1 2 2 2 2 2
11 10 9 8 6 5 4 4 4 3 4 4 4 3 2 2 1 1 1 1 2 3 2 2 2 2 2 1 1 1 1 1 1 1 1 2 3 3 3 3 3 3 3
11 10 9 8 7 6 4 4 3 3 3 3 3 3 3 2 1 0 1 1 0 1 1 1 1 1 1 0 1 1 2 2 2 2 3 3 3 4 4 4 4 5 5
10 10 9 7 6 5 4 3 3 2 2 2 2 2 2 2 1 1 1 2 1 1 1 1 0 1 1 1 2 2 3 3 4 4 4 4 4 5 6 6 6 6 7
9 8 8 7 6 4 4 3 3 3 3 3 2 2 1 1 1 2 2 3 3 3 2 2 3 3 3 3 4 4 5 5 6 6 6 6 7 7 7 7 8 8 9
8 7 7 7 6 4 3 3 4 4 3 3 3 3 3 3 3 3 4 4 5 5 4 4 5 5 6 6 6 7 7 7 8 8 8 8 8 8 9 9 9 10 10
8 7 6 7 6 4 3 3 4 4 4 3 4 4 4 4 4 4 5 5 6 6 6 6 7 8 8 8 9 9 10 10 10 10 10 10 10 10 10 11 11 12 12
7 6 6 7 7 6 4 4 4 5 5 4 4 5 5 5 5 6 7 7 8 8 8 8 9 9 10 10 10 10 11 12 12 12 12 12 12 13 12 12 13 13 13
7 7 6 7 7 7 6 5 5 5 6 5 5 5 5 6 6 7 8 9 9 10 10 10 10 11 11 12 12 12 12 13 13 13 14 14 14 14 14 14 14 15 15
8 8 7 7 7 7 6 6 6 7 7 7 6 6 6 7 7 8 8 9 10 11 12 12 13 13 13 13 13 14 14 14 15 15 16 16 16 16 16 16 16 17 17
9 10 8 7 7 6 6 6 7 7 8 8 9 8 8 8 8 8 9 10 11 11 12 14 15 15 15 15 16 16 16 15 15 16 17 17 17 17 17 18 18 19 19

GEFSSE_500_meanwind_204.txt.gz
Wind_Speed
11 11 11 10 10 11 12 13 13 14 14 14 14 13 13 14 13 13 12 12 12 11 11 11 11 11 11 11 11 11 11 11 11 10 10 9 9 8 8 8 7 7 6
10 10 10 10 10 11 11 12 13 14 14 14 14 13 13 13 13 12 12 11 11 11 11 11 10 10 10 11 11 11 11 11 10 10 9 9 8 8 8 7 7 7 6
10 10 10 9 10 10 11 12 13 13 13 13 14 13 13 13 12 12 12 11 11 11 11 10 10 9 10 10 11 11 11 10 9 9 9 9 8 8 7 7 6 6 6
9 9 9 10 10 10 11 11 12 12 12 13 13 13 13 12 12 11 11 11 11 11 10 10 10 9 9 10 10 10 10 10 10 9 9 9 8 8 7 7 6 6 6
9 8 9 9 9 9 10 11 11 12 12 12 12 12 12 12 12 12 11 11 11 10 10 9 9 9 9 9 9 10 10 10 10 9 9 8 8 8 7 7 7 6 5
8 8 8 8 8 9 10 10 10 11 11 12 12 12 12 12 12 11 11 10 10 10 10 9 8 8 9 9 9 10 10 10 9 9 9 9 8 8 8 7 6 6 6
8 7 7 7 7 8 8 9 9 10 11 11 11 11 11 11 11 10 10 9 9 9 9 8 8 8 9 9 9 10 9 9 9 9 8 8 8 8 7 6 6 6 7
7 6 6 6 7 7 8 8 8 9 9 10 10 10 10 10 10 10 9 9 9 9 8 8 8 8 9 9 9 9 9 9 8 8 7 7 7 7 7 6 6 6 6
7 6 5 6 7 6 7 7 7 8 8 8 8 9 9 9 9 9 9 8 9 9 9 9 9 9 8 9 9 9 8 8 8 7 7 6 6 6 6 6 5 6 6
7 6 6 5 5 5 6 6 6 7 8 8 8 8 8 8 8 8 8 8 8 8 8 8 8 8 8 9 8 8 8 7 7 7 6 6 5 5 5 5 5 5 5
7 6 5 5 4 4 5 6 6 7 7 7 7 7 7 7 7 8 8 8 8 8 8 8 7 8 8 8 8 7 7 7 7 6 6 5 5 5 5 5 4 4 4
6 5 5 5 4 4 5 5 6 6 7 7 7 7 6 7 7 7 7 8 8 8 8 7 7 7 7 7 7 7 6 6 6 5 5 5 5 5 4 4 3 3 3
7 5 5 4 4 4 5 5 5 5 5 6 6 6 7 6 6 6 7 7 7 7 7 7 7 6 6 6 6 5 5 5 5 4 4 3 3 3 3 3 2 2 2
8 7 6 5 5 5 5 5 5 5 5 5 5 6 6 6 6 6 6 6 6 6 5 5 6 6 5 5 5 4 4 4 3 3 3 3 2 2 2 2 1 1 1
8 7 6 5 5 5 5 5 5 5 5 4 4 4 5 6 6 6 6 6 5 5 5 4 4 4 5 5 4 3 3 2 2 1 1 1 1 1 1 1 1 0 1
8 7 6 6 5 5 5 4 5 5 5 5 4 5 5 5 5 5 5 5 5 4 4 3 3 3 4 3 3 3 2 1 1 0 0 1 1 1 2 2 2 2 2
8 7 6 5 5 4 4 4 4 4 4 4 4 4 4 4 4 4 4 4 3 3 3 2 3 2 2 2 1 1 0 0 1 1 1 2 2 2 3 2 2 3 3
8 7 6 5 5 4 4 3 2 2 2 2 2 3 3 3 3 3 2 2 1 1 2 2 2 2 1 1 1 1 2 2 2 2 2 3 3 4 4 4 4 4 4
7 6 5 5 4 4 3 2 2 2 1 0 0 1 1 1 2 2 1 1 1 1 1 1 1 2 2 2 2 3 3 4 4 4 4 5 5 5 5 6 6 6 6
7 6 5 4 4 3 3 3 2 2 2 1 1 1 0 1 1 1 1 1 1 1 2 2 2 3 3 4 4 4 5 6 6 6 7 7 7 7 7 7 8 8 8
8 6 5 5 4 3 3 3 3 3 3 2 2 2 2 2 3 3 2 2 3 2 3 3 4 4 5 5 6 6 7 7 8 8 9 9 9 9 9 9 10 10 11
9 7 5 4 4 4 4 4 4 4 3 3 3 3 3 3 4 4 5 4 4 4 5 6 6 7 7 7 8 8 8 9 9 10 10 11 11 11 10 11 11 12 12
9 8 6 6 5 5 5 5 5 5 4 4 4 4 5 5 5 6 6 6 6 7 7 8 8 8 9 9 10 10 11 11 11 12 12 12 12 12 12 12 13 13 14
10 9 7 7 6 6 7 6 6 6 6 6 6 6 6 6 6 6 7 7 8 9 9 9 10 10 11 11 11 12 12 13 13 13 13 13 13 13 13 14 14 15 16
11 10 9 8 8 7 7 7 7 7 7 7 7 7 7 6 7 7 7 8 8 9 9 10 10 11 12 13 13 13 13 14 14 14 14 14 14 14 14 15 15 16 17
11 11 9 9 9 8 8 8 7 7 7 8 8 8 8 8 8 8 8 9 9 9 10 11 12 13 13 14 14 14 15 15 15 14 14 15 15 16 16 17 16 17 18

GEFSSE_500_meanwind_210.txt.gz
Wind_Speed
10 10 10 9 9 9 8 8 8 8 8 9 9 10 10 10 10 9 9 10 10 11 11 11 11 12 11 11 11 10 10 10 10 9 9 9 9 8 8 8 7 7 6
10 10 9 9 9 8 8 7 7 8 9 9 9 9 10 10 9 9 9 9 10 10 10 11 11 11 11 10 10 10 9 9 9 10 9 9 9 9 8 8 7 7 6
9 9 9 8 8 8 7 7 7 8 8 9 9 9 10 10 9 9 9 9 10 10 10 10 11 10 10 10 10 9 9 9 9 9 9 9 9 9 8 8 7 7 7
8 8 8 8 8 8 7 7 7 7 7 8 8 9 9 10 10 9 9 9 10 10 11 10 10 10 10 10 10 10 10 9 9 9 9 9 9 8 8 7 7 6 6
8 8 8 8 7 7 7 7 6 7 7 7 8 8 9 10 10 10 9 10 10 10 10 10 10 10 9 9 9 9 10 10 9 8 8 8 8 8 7 7 7 6 6
8 7 7 7 7 6 6 6 6 6 6 7 7 8 8 9 10 9 9 9 9 9 9 9 9 9 9 8 8 9 9 9 8 8 8 8 8 7 7 6 6 6 5
7 7 7 6 6 6 6 6 5 6 6 6 7 7 8 8 9 9 9 9 9 9 8 9 9 9 8 8 8 9 8 8 7 7 7 7 7 7 6 6 6 5 5
8 7 6 6 6 6 6 5 5 5 5 6 6 6 7 7 8 8 8 9 9 8 8 8 8 9 8 8 8 8 8 8 7 6 7 7 7 6 6 5 5 5 5
8 7 6 6 6 6 5 5 4 5 5 5 5 6 6 7 7 7 8 8 8 8 8 8 8 8 8 8 8 8 8 7 6 6 6 6 6 5 5 5 4 4 4
8 7 6 5 6 5 5 4 4 4 5 5 5 5 6 6 7 7 7 7 8 8 8 8 8 8 8 8 8 8 7 6 6 6 6 6 5 5 4 4 4 4 4
9 8 7 6 5 5 5 4 4 4 5 5 4 5 5 5 6 6 7 7 7 7 7 7 7 7 7 7 7 7 7 6 6 6 5 5 5 4 4 4 3 3 3
9 8 8 7 6 5 5 4 4 4 4 4 4 4 4 4 5 5 6 6 7 7 7 7 6 6 6 6 6 6 6 6 5 5 4 4 3 3 3 3 2 2 2
10 9 8 7 6 5 5 5 4 4 4 3 4 5 5 5 5 5 5 5 5 6 6 6 5 5 5 5 5 5 5 4 5 4 3 3 3 3 2 2 1 1 1
10 10 9 8 7 5 5 5 5 5 4 4 5 5 5 5 5 5 4 4 4 5 5 5 5 5 5 4 4 4 4 3 3 2 2 1 2 2 2 1 1 1 1
11 9 9 8 8 7 5 5 5 6 5 5 5 5 5 5 5 4 4 4 3 4 4 4 4 3 3 3 3 3 3 3 2 2 2 2 1 1 1 1 1 2 2
12 10 9 8 7 7 6 6 6 6 5 4 4 5 5 6 5 4 3 3 3 2 2 2 2 2 2 2 2 2 2 1 2 2 2 2 2 2 1 1 2 2 3
13 11 10 8 7 7 6 6 6 6 5 4 4 4 4 4 4 3 3 3 2 2 1 1 1 1 0 0 0 0 0 1 0 1 1 2 3 3 3 3 3 3 3
13 11 11 9 8 7 7 7 6 6 6 5 4 4 3 3 3 3 3 2 2 2 1 1 0 0 1 1 2 2 2 2 2 2 2 3 4 4 4 4 4 5 5
13 12 11 9 8 7 7 7 7 6 5 4 3 3 3 3 3 3 3 2 2 2 2 2 2 2 2 2 2 2 3 3 4 4 4 4 5 5 5 6 6 7 7
14 13 11 9 9 8 7 6 6 5 5 4 3 3 3 3 3 3 3 2 2 2 2 2 3 3 4 4 4 4 4 5 6 6 6 6 7 7 7 7 8 8 8
14 14 12 10 9 8 7 6 6 5 4 4 4 3 3 3 3 4 4 3 3 4 4 4 5 5 5 5 6 6 7 7 7 7 8 8 8 8 9 9 10 9 10
14 13 12 10 9 8 7 7 6 6 5 5 4 4 3 4 4 4 4 4 5 5 6 6 7 7 7 7 8 8 8 8 9 9 9 10 10 10 10 11 11 11 12
14 13 12 11 10 9 8 7 7 7 7 6 5 5 5 5 5 5 6 6 6 7 8 8 8 8 9 9 9 9 10 10 10 11 11 11 12 12 12 12 12 13 13
15 13 12 12 11 10 9 8 8 7 7 7 7 6 6 6 7 7 8 8 8 9 9 10 9 10 10 11 11 11 11 11 11 12 12 12 12 12 13 13 13 13 14
15 15 13 12 12 10 10 9 8 7 7 7 7 7 7 7 8 9 9 9 9 10 10 11 11 10 11 11 11 12 12 12 12 12 12 12 13 13 13 14 15 15 15
15 15 14 13 12 11 10 10 9 8 8 8 8 8 8 8 9 9 9 10 10 10 10 11 10 11 11 11 11 12 12 13 12 13 13 13 14 14 14 14 15 15 15

GEFSSE_500_meanwind_216.txt.gz
Wind_Speed
13 12 11 11 11 10 10 10 9 9 8 8 7 8 8 8 8 9 9 10 11 11 12 12 12 11 11 11 11 11 12 12 11 11 10 10 10 9 9 9 9 8 8
13 12 12 11 11 11 9 10 9 9 9 8 7 7 8 9 8 8 9 10 10 11 11 11 11 11 11 11 11 11 12 12 12 11 10 11 10 9 9 9 8 8 8
12 12 12 11 11 11 10 9 9 9 9 8 8 7 8 8 8 8 9 9 10 10 10 11 11 11 11 11 12 12 12 12 11 11 11 11 10 9 9 8 8 8 7
12 11 11 11 10 10 10 9 9 9 8 8 8 7 7 7 8 8 8 8 9 9 10 10 10 11 11 12 12 12 12 12 11 11 11 10 10 9 9 8 8 7 7
12 11 11 10 10 10 10 9 9 9 8 8 8 7 7 8 8 8 9 9 9 9 9 10 10 11 11 11 11 12 12 11 11 11 10 10 10 9 9 8 8 8 7
12 11 11 10 10 10 10 9 9 9 8 8 8 8 8 8 8 8 9 9 9 9 9 9 10 10 10 11 11 11 11 10 10 10 10 10 9 9 8 8 8 7 7
11 11 10 10 10 9 9 9 9 9 8 7 8 8 8 8 9 9 8 8 8 8 8 8 9 10 10 10 10 10 10 9 10 10 9 9 8 8 8 7 7 7 6
11 10 10 9 9 9 9 9 8 9 8 7 7 8 8 8 8 8 8 7 7 8 8 8 9 9 9 9 9 10 9 9 9 8 8 8 7 8 7 7 6 6 6
10 10 9 9 9 9 9 9 9 8 8 7 8 8 7 7 8 8 7 7 7 7 7 8 8 9 9 8 8 8 8 8 8 7 7 7 6 6 6 6 5 5 5
10 10 10 9 9 9 9 9 8 8 7 7 7 7 7 7 7 8 7 8 8 8 8 8 8 8 8 8 8 7 7 7 8 7 6 6 5 5 5 4 5 5 5
11 11 10 9 9 9 9 9 8 7 7 7 7 7 7 6 7 7 7 8 8 8 8 8 8 8 8 7 7 6 7 7 7 6 6 5 5 4 4 4 4 4 4
11 11 10 10 9 10 9 8 8 7 6 7 7 7 7 7 7 7 7 7 7 7 7 7 7 7 7 7 6 5 5 5 5 5 4 4 4 3 4 3 3 3 2
12 11 11 11 10 10 10 9 9 8 7 7 7 7 7 7 7 7 6 6 6 6 6 6 6 6 6 5 4 4 4 4 4 4 4 3 3 2 2 2 2 2 1
13 12 11 11 11 11 10 9 9 8 8 7 7 7 7 7 7 7 6 6 6 6 6 5 5 5 5 4 3 3 3 3 3 3 3 3 2 2 1 1 0 0 0
13 12 11 11 11 11 10 10 10 9 8 8 7 7 6 7 7 6 5 5 5 4 4 4 4 3 3 2 2 1 1 2 2 2 2 1 1 1 1 1 1 2 2
14 13 12 11 11 11 10 9 9 8 8 8 7 7 7 6 6 5 5 4 4 3 3 2 2 2 2 1 1 1 1 2 1 1 1 1 1 2 2 3 3 3 4
13 12 11 11 11 11 10 9 9 8 7 7 7 6 6 6 6 5 5 4 3 2 2 2 1 1 1 0 1 2 2 1 2 2 2 3 3 3 4 4 4 4 5
13 11 10 10 10 10 9 8 8 7 6 6 6 6 5 5 4 4 4 4 3 1 1 0 0 1 1 1 2 2 3 2 3 3 4 4 5 5 6 5 6 6 7
13 12 11 10 9 9 8 7 7 6 5 5 4 4 4 3 3 3 3 3 2 2 1 1 1 2 2 3 3 4 4 4 5 5 6 6 6 7 7 7 8 8 8
13 12 11 9 9 8 7 6 6 5 4 4 3 3 3 3 3 2 2 2 2 2 2 2 2 3 4 5 5 5 6 7 7 7 8 8 8 8 8 9 9 9 9
13 12 11 9 8 7 7 6 5 4 4 3 3 3 3 2 2 2 2 3 3 3 3 3 4 5 5 6 7 8 8 8 8 9 9 9 10 10 10 10 10 11 11
13 12 11 9 8 7 7 6 6 5 4 3 2 2 3 3 3 3 3 3 4 5 5 5 6 7 8 8 8 9 9 9 9 9 10 10 11 11 12 12 13 12 13
12 12 11 10 8 7 6 7 6 5 4 3 2 3 3 3 4 4 5 5 6 6 7 7 8 8 9 9 9 10 10 10 10 10 11 11 12 13 13 14 13 13 14
11 11 10 9 8 7 7 6 6 5 4 3 3 4 4 5 5 6 6 6 7 7 7 7 7 8 9 9 9 9 9 9 11 11 12 12 12 13 14 15 15 14 14
11 11 10 10 8 8 7 7 6 6 4 4 4 4 5 5 6 6 7 7 7 7 8 8 7 8 8 8 8 9 10 10 10 11 12 12 12 13 13 14 14 14 14
10 10 10 10 9 8 7 7 7 6 5 4 4 4 5 5 6 7 7 8 9 8 8 8 8 8 8 8 8 9 9 10 11 11 12 13 13 13 13 14 15 15 15

GEFSSE_500_meanwind_222.txt.gz
Wind_Speed
10 10 10 11 11 12 13 13 12 11 11 10 10 10 9 9 10 11 11 11 11 11 11 11 11 10 10 9 9 9 10 10 10 10 9 9 9 9 9 9 8 8 7
10 10 11 12 12 12 13 13 12 12 11 11 10 10 10 10 10 10 10 11 11 11 11 12 11 10 10 10 10 10 10 10 10 10 9 9 9 9 9 8 8 7 7
10 10 11 11 13 13 13 13 13 12 12 11 11 10 10 10 10 10 11 11 11 11 11 11 11 11 11 11 11 11 10 10 10 10 9 9 9 9 8 8 7 7 7
10 11 11 12 12 13 14 14 13 12 12 12 12 11 11 11 11 10 10 11 11 10 10 10 10 10 10 10 11 11 10 10 10 10 9 9 9 9 8 8 7 7 7
10 11 12 12 12 12 13 13 13 12 12 12 11 11 11 11 11 10 10 11 10 10 10 10 10 10 10 11 11 11 10 10 10 9 9 9 9 8 8 7 7 6 6
10 11 11 12 12 12 12 12 12 12 12 12 11 11 11 11 11 11 11 10 10 10 10 10 10 10 10 10 10 10 10 9 9 9 9 9 8 8 8 7 7 6 6
10 11 11 11 11 12 11 11 11 12 12 12 11 12 12 11 11 10 10 10 9 9 10 10 10 9 9 9 9 9 9 9 9 9 9 8 8 7 7 7 6 6 5
10 11 11 11 11 11 11 11 11 11 11 11 11 11 11 11 11 10 9 9 9 9 9 9 10 9 9 9 9 8 8 8 8 8 8 7 7 6 6 6 6 5 5
10 11 10 11 11 11 11 11 11 11 12 11 11 11 10 10 10 10 9 9 9 9 9 9 9 9 9 9 9 8 7 7 7 6 6 6 6 5 5 5 4 4 4
11 10 10 11 11 10 10 10 10 11 11 11 10 10 10 10 9 10 9 9 9 9 9 9 9 9 8 8 8 8 7 6 5 5 5 5 5 4 4 4 3 3 3
11 10 10 11 11 11 10 10 10 10 10 10 10 10 10 10 10 10 9 9 8 8 8 8 8 7 7 7 7 7 7 6 5 5 4 4 4 4 3 2 2 2 2
12 12 11 11 10 11 11 11 11 10 10 10 9 9 9 10 9 9 9 8 8 7 7 7 7 6 6 6 6 6 5 5 4 3 3 3 3 3 2 1 1 1 1
13 12 11 11 10 10 10 11 10 10 10 9 9 8 8 9 9 9 8 8 7 7 7 7 6 6 5 5 5 4 4 4 3 2 2 2 2 2 1 1 1 0 0
12 12 11 11 10 9 10 10 10 10 10 9 9 8 8 8 8 8 8 8 7 7 7 6 5 4 4 3 3 3 2 2 2 2 2 2 1 1 1 1 1 1 1
12 11 11 10 10 10 10 10 10 9 9 9 8 8 7 7 7 7 7 6 6 5 5 4 3 3 3 3 2 1 1 1 0 0 0 0 0 1 2 2 2 2 3
12 12 11 9 9 9 9 10 9 9 9 8 8 7 7 6 6 6 6 5 5 4 3 3 2 3 2 2 2 0 1 1 1 1 2 2 2 3 3 3 4 4 4
11 11 11 10 9 8 8 9 8 8 8 8 7 7 6 5 5 5 4 4 4 3 3 2 1 1 1 1 1 1 2 2 3 3 3 4 4 5 5 6 6 6 6
10 10 10 10 8 7 7 7 7 6 7 6 6 5 5 5 4 4 3 3 3 3 2 1 1 2 2 2 3 3 3 4 4 4 5 6 6 6 7 7 8 8 8
10 9 8 8 8 7 6 5 5 5 5 4 4 4 4 4 4 3 2 3 3 2 2 2 2 3 3 4 4 5 5 6 6 7 7 8 7 8 8 8 9 9 9
10 8 7 7 6 6 5 4 4 3 3 3 3 2 2 2 2 2 3 3 3 3 3 3 3 4 4 5 6 7 7 8 8 9 8 9 9 10 10 10 10 10 11
11 9 8 6 6 5 5 5 4 3 3 2 2 1 1 1 1 2 2 3 3 4 5 5 6 6 7 7 8 8 9 9 9 9 9 10 11 11 11 11 12 12 13
12 10 9 7 6 5 5 5 4 3 3 2 2 2 2 2 2 3 3 3 4 5 6 7 7 7 8 9 9 10 9 9 10 10 10 11 11 12 13 13 13 14 14
11 11 10 9 8 6 6 5 4 4 3 3 2 2 3 3 3 4 5 6 6 7 7 7 7 8 9 9 10 10 11 12 12 12 12 13 13 13 13 14 14 15 16
11 10 10 9 8 7 7 6 5 4 4 4 3 2 3 3 4 6 7 7 8 8 8 9 9 9 10 10 10 10 11 11 12 13 14 14 14 14 15 15 15 16 15
11 10 9 9 8 7 7 6 6 4 4 4 4 4 4 5 6 7 8 8 8 9 9 10 10 10 10 10 10 11 11 10 11 12 14 15 15 15 15 15 16 16 16
12 10 8 8 8 7 7 7 6 6 5 5 5 5 5 7 7 8 9 9 9 10 10 10 10 10 11 11 11 11 11 11 12 12 13 14 15 16 15 16 16 16 16